Regional Weather Roundup
Issued by NWS Bismarck, ND

Home | Current Version | Previous Version | Text Only | Print | Product List | Glossary On
Versions: 1 2 3 4 5 6 7 8 9 10 11 12 13 14 15 16 17 18 19 20 21 22 23 24 25 26 27 28 29 30 31 32 33 34 35 36 37 38 39 40 41 42 43 44 45 46 47 48 49 50
000
ASUS43 KBIS 290702
RWRBIS

NWR BROADCAST TEXT
NATIONAL WEATHER SERVICE BISMARCK ND
200 AM CDT FRI APR 29 2016

NOTE: "FAIR" INDICATES FEW OR NO CLOUDS BELOW 12,000 FEET WITH NO
SIGNIFICANT WEATHER AND/OR OBSTRUCTIONS TO VISIBILITY.


CITY           SKY/WX    TMP DP  RH WIND       PRES   REMARKS
WILLISTON      PTCLDY    40  28  62 NE6       30.17S
MINOT          PTCLDY    43  19  38 NE7       30.19S
MINOT AFB      PTCLDY    40  20  45 E7        30.19S
BISMARCK       PTCLDY    39  32  76 NE7       30.16S
DICKINSON      MOCLDY    39  26  59 E3        30.12S
GARRISON         N/A     34  23  64 NE5       30.17S
HETTINGER ARPT CLOUDY    37  35  92 NW5       30.14S
JAMESTOWN      CLOUDY    39  27  62 NE8       30.13F
CARRINGTON     FAIR      39  30  70 NE5       30.19S
HAZEN          CLOUDY    37  28  70 CALM      30.18S
OAKES            N/A    N/A N/A N/A MISG        N/A
STANLEY        PTSUNNY   37  21  52 E7        30.20S
$$

CITY           SKY/WX    TMP DP  RH WIND       PRES   REMARKS
GRAND FORKS    CLOUDY    35  27  72 N6        30.17S
GRAND FORKS AF CLOUDY    32  27  80 N5        30.17S
DEVILS LAKE    CLOUDY    40  23  50 N3        30.19S
FARGO          CLOUDY    38  28  67 N6        30.14R
CAVALIER       FAIR      39  25  56 N5        30.21S
GRAFTON        FAIR      39  28  65 N6        30.21S
GWINNER        PTSUNNY   39  37  93 SW8       30.14S
LANGDON        FAIR      37  21  52 NE7       30.20S
$$

CITY           SKY/WX    TMP DP  RH WIND       PRES   REMARKS
ABERDEEN       CLOUDY    39  36  89 SW6       30.16S
MOBRIDGE       PTCLDY    43  38  82 SE7       30.12S
BUFFALO          N/A     38  32  79 N3        30.06F
RAPID CITY     CLOUDY    36  34  92 CALM      30.13S
GLASGOW        CLOUDY    40  33  76 CALM      30.14R
SIDNEY         CLOUDY    43  30  61 NW5       30.16S
WOLF POINT     CLOUDY    43  35  73 SE3       30.16R
GLENDIVE       CLOUDY    39  36  87 W3        30.17S
MILES CITY     CLOUDY    40  35  83 E3        30.12F
BAKER          CLOUDY    38  34  85 CALM      30.14F
$$

CITY           SKY/WX    TMP DP  RH WIND       PRES   REMARKS
BILLINGS       CLOUDY    36  34  92 N5        30.06F
GREAT FALLS    CLOUDY    38  32  79 E10       30.03F
$$





USA.gov is the U.S. government's official web portal to all federal, state and local government web resources and services.